Regional Weather Roundup
Issued by NWS Kansas City/Pleasant Hill, MO

Home | Current Version | Previous Version | Text Only | Print | Product List | Glossary On
Versions: 1 2 3 4 5 6 7 8 9 10 11 12 13 14 15 16 17 18 19 20 21 22 23 24 25 26 27 28
000
ASUS43 KEAX 272010
RWREAX

WEATHER ROUNDUP FOR EASTERN KANSAS AND NORTHWEST MISSOURI
NATIONAL WEATHER SERVICE KANSAS CITY/PLEASANT HILL MO
300 PM CDT WED APR 27 2016

KSZ040-057-103>105-MOZ028-029-037-043-272100-
...KANSAS CITY METROPOLITAN AREA...

CITY           SKY/WX    TMP DP  RH WIND       PRES   REMARKS
K.C. INTL      PTSUNNY   69  54  58 S16       29.52F
K.C. DOWNTOWN  PTSUNNY   72  54  53 SW20      29.52F
LEES SUMMIT    PTSUNNY   69  55  60 S17       29.55F
OLATHE - IXD   LGT RAIN  69  55  60 S20G26    29.54S
OLATHE - OJC   PTSUNNY   68  54  60 S14G21    29.54S
LAWRENCE       CLOUDY    68  55  63 SW23      29.53R

$$

MOZ001>008-011>017-020>025-030>033-038>040-044>046-053-054-272100-
...NORTHERN AND CENTRAL MISSOURI...

CITY           SKY/WX    TMP DP  RH WIND       PRES   REMARKS
ST. JOSEPH     PTSUNNY   68  54  60 S17       29.49F
MOSBY          MOCLDY    70  54  56 SE8G16    29.53F
WARRENSBURG    MOSUNNY   70  55  60 S12G20    29.57S
WHITEMAN AFB   PTSUNNY   71  58  63 S10G21    29.58S
CLINTON        PTSUNNY   72  59  64 SW10      29.60R
SEDALIA        PTSUNNY   74  59  59 S10G20    29.61R
WARSAW         NOT AVBL
CHILLICOTHE      N/A     70  58  65 SE13G20   29.57F
KIRKSVILLE     PTSUNNY   65  58  78 E15       29.62F

$$

MOZ041-047>049-056>058-063>065-088>090-097-272100-
...EASTERN AND SOUTHERN MISSOURI...

CITY           SKY/WX    TMP DP  RH WIND       PRES   REMARKS
ST. LOUIS INTL CLOUDY    76  60  57 SE12      29.66S
SPIRIT OF STL  MOSUNNY   76  62  62 S12       29.63F
COLUMBIA       PTSUNNY   75  61  61 SE8       29.60S
JEFFERSON CITY MOSUNNY   76  58  53 S9        29.59S
ROLLA          PTSUNNY   73  58  59 S13G22    29.62S
OSAGE BEACH    PTSUNNY   75  54  46 S8        29.61S
SPRINGFIELD    MOSUNNY   75  53  46 SW10G20   29.62S
BRANSON        MOSUNNY   77  55  47 SW8       29.66R
JOPLIN         PTSUNNY   73  56  54 SW22G29   29.63R
WEST PLAINS    PTSUNNY   75  58  55 S10G20    29.67R

$$

IAZ060-094-KSZ022-034>040-054-083-096-NEZ052-066-093-272100-
...KANSAS...SOUTHEAST NEBRASKA AND IOWA...

CITY           SKY/WX    TMP DP  RH WIND       PRES   REMARKS
TOPEKA         TSTM      61  56  83 VRB6      29.54R
MANHATTAN      CLOUDY    58  46  64 W17G29    29.59R
EMPORIA        MOSUNNY   64  50  60 W15G25    29.60R
CHANUTE        MOSUNNY   70  54  56 SW17G24   29.60R
WICHITA        MOSUNNY   63  47  55 W14G24    29.66S
OMAHA          PTSUNNY   64  56  75 E16       29.49F
LINCOLN        CLOUDY    61  47  59 SW22      29.49R
FALLS CITY     CLOUDY    64  56  75 S7        29.48F
LAMONI         CLOUDY    62  57  83 E9G20     29.57S
DES MOINES     CLOUDY    51  48  89 E12G22    29.65R FOG

$$





USA.gov is the U.S. government's official web portal to all federal, state and local government web resources and services.